LANDSAT 8

Last updated on Wed Sep 17 2025 00:02:30 GMT+0000 (Coordinated Universal Time)

1 39084U 13008A 25259.51469373 .00000343 00000+0 86203-4 0 9999 2 39084 98.2176 328.8260 0001229 93.7834 266.3505 14.57101612658044
UTC large
Height (km)
Speed (km/s)
/
Latitude / Longitude
Inclination (degrees)
Orbital Period (minutes)
Azimuth
Elevation
Range (km)
Doppler Factor

Next 0 passes for location: London (51.5072 / 0.1276)

Sorry there are no passes over London.